Conditions Actuelle
Plutôt dégagé



Pression
29.82 (inHG) - 1009.92 (mb)
Visibilité

10.0 (km) - 6.2 (miles)
   Température
12  °C
Température
8  °C
Point de Rosée
77  %
 Humidité
   Vitesse du Vent
10  km/h
5  kts
6  mph
2.7  m/s
   Direction du Vent
N
45°
E
90°
135°
S
180°
225°
O
270°
315°
 150°

Sud Sud
Est
   Données D'Aéroport
LFBG
Cognac-Châteaubernard (BA 709) Air Base
Metar :LFBG 230500Z AUTO 15005KT CAVOK 12/08 Q1010
23-03-2023 06:00
   Informations de métar brut
Le METAR brut est le format le plus courant au monde pour la transmission de données météorologiques d'observation. Il est hautement standardisé par l’Organisation de l’aviation civile internationale (OACI), ce qui lui permet d’être compris dans la plupart des pays du monde.
   API Information
Données fournies par
https://www.checkwx.com/weather/LFBG

Météo aéronautique fournissant des rapports météorologiques METAR, TAF, AIRMET, SIGMET et OUTLOOK
   © Info
CSS/SVG/PHP les scripts ont été développés pa weather34.com pour une utilisation dans le modèle weather34 © 2015-2023

Informations sur le guide fournies par Metar-Wikipedia